Location: Lombard
(41.8800°N, 88.0080°W)
Time: 01:06:37
(UTC-05:00)

Gurwin Techsat 1B - Pass Details

Date: 21 May 2022
Orbit: 811 x 814 km, 98.8° (Epoch: 27 June)

Event Time Altitude Azimuth Distance (km) Brightness Sun altitude
Rises 02:46:35 0° 21° (NNE) 3,344 13.3 -22.2°
Reaches altitude 10° 02:49:05 10° 30° (NNE) 2,407 12.2 -22.0°
Maximum altitude 02:54:03 39° 98° (E) 1,210 9.7 -21.5°
Enters shadow 02:56:59 22° 153° (SSE) 1,726 10.0 -21.2°
